Year,Month,Day,Hour,Minute,Value (Times are PST for temperature in C)
2008,10,01,00,00,12.00
2008,10,01,00,01,12.00
2008,10,01,00,02,11.90
2008,10,01,00,03,11.90
2008,10,01,00,04,11.80
2008,10,01,00,05,11.80
2008,10,01,00,06,11.80
2008,10,01,00,07,11.80
2008,10,01,00,08,11.80
2008,10,01,00,09,11.70
2008,10,01,00,10,11.70
2008,10,01,00,11,11.70
2008,10,01,00,12,11.70
2008,10,01,00,13,11.70
2008,10,01,00,14,11.70
2008,10,01,00,15,11.70
2008,10,01,00,16,11.70
2008,10,01,00,17,11.70
2008,10,01,00,18,11.70
2008,10,01,00,19,11.70
2008,10,01,00,20,11.70
2008,10,01,00,21,11.70
2008,10,01,00,22,11.70
2008,10,01,00,23,11.70
2008,10,01,00,24,11.70
2008,10,01,00,25,11.60
2008,10,01,00,26,11.60
2008,10,01,00,27,11.60
2008,10,01,00,28,11.60
2008,10,01,00,29,11.60
2008,10,01,00,30,11.60
2008,10,01,00,31,11.50
2008,10,01,00,32,11.50
2008,10,01,00,33,11.50
2008,10,01,00,34,11.40
2008,10,01,00,35,11.40
2008,10,01,00,36,11.40
2008,10,01,00,37,11.40
2008,10,01,00,38,11.30
2008,10,01,00,39,11.30
2008,10,01,00,40,11.30
2008,10,01,00,41,11.30
2008,10,01,00,42,11.30
2008,10,01,00,43,11.20
2008,10,01,00,44,11.20
2008,10,01,00,45,11.20
2008,10,01,00,46,11.20
2008,10,01,00,47,11.20
2008,10,01,00,48,11.20
2008,10,01,00,49,11.20
2008,10,01,00,50,11.20
2008,10,01,00,51,11.20
2008,10,01,00,52,11.20
2008,10,01,00,53,11.20
2008,10,01,00,54,11.10
2008,10,01,00,55,11.10
2008,10,01,00,56,11.10
2008,10,01,00,57,11.10
2008,10,01,00,58,11.10
2008,10,01,00,59,11.00
2008,10,01,01,00,11.00
2008,10,01,01,01,11.00
2008,10,01,01,02,10.90
2008,10,01,01,03,10.90
2008,10,01,01,04,10.90
2008,10,01,01,05,10.90
2008,10,01,01,06,10.90
2008,10,01,01,07,10.90
2008,10,01,01,08,10.80
2008,10,01,01,09,10.80
2008,10,01,01,10,10.80
2008,10,01,01,11,10.80
2008,10,01,01,12,10.80
2008,10,01,01,13,10.80
2008,10,01,01,14,10.80
2008,10,01,01,15,10.70
2008,10,01,01,16,10.70
2008,10,01,01,17,10.70
2008,10,01,01,18,10.70
2008,10,01,01,19,10.60
2008,10,01,01,20,10.60
2008,10,01,01,21,10.60
2008,10,01,01,22,10.60
2008,10,01,01,23,10.60
2008,10,01,01,24,10.50
2008,10,01,01,25,10.50
2008,10,01,01,26,10.50
2008,10,01,01,27,10.40
2008,10,01,01,28,10.40
2008,10,01,01,29,10.40
2008,10,01,01,30,10.40
2008,10,01,01,31,10.40
2008,10,01,01,32,10.40
2008,10,01,01,33,10.40
2008,10,01,01,34,10.40
2008,10,01,01,35,10.30
2008,10,01,01,36,10.30
2008,10,01,01,37,10.30
2008,10,01,01,38,10.20
2008,10,01,01,39,10.10
2008,10,01,01,40,10.10
2008,10,01,01,41,10.10
2008,10,01,01,42,10.00
2008,10,01,01,43,10.00
2008,10,01,01,44,10.00
2008,10,01,01,45,10.00
2008,10,01,01,46,10.00
2008,10,01,01,47,10.00
2008,10,01,01,48,9.90
2008,10,01,01,49,9.90
2008,10,01,01,50,9.90
2008,10,01,01,51,9.90
2008,10,01,01,52,9.90
2008,10,01,01,53,9.90
2008,10,01,01,54,9.90
2008,10,01,01,55,9.90
2008,10,01,01,56,9.90
2008,10,01,01,57,9.90
2008,10,01,01,58,9.90
2008,10,01,01,59,9.90
2008,10,01,02,00,9.90
2008,10,01,02,01,9.90
2008,10,01,02,02,9.90
2008,10,01,02,03,9.90
2008,10,01,02,04,9.80
2008,10,01,02,05,9.80
2008,10,01,02,06,9.80
2008,10,01,02,07,9.80
2008,10,01,02,08,9.80
2008,10,01,02,09,9.80
2008,10,01,02,10,9.70
2008,10,01,02,11,9.70
2008,10,01,02,12,9.70
2008,10,01,02,13,9.70
2008,10,01,02,14,9.70
2008,10,01,02,15,9.70
2008,10,01,02,16,9.70
2008,10,01,02,17,9.70
2008,10,01,02,18,9.70
2008,10,01,02,19,9.70
2008,10,01,02,20,9.70
2008,10,01,02,21,9.60
2008,10,01,02,22,9.60
2008,10,01,02,23,9.60
2008,10,01,02,24,9.60
2008,10,01,02,25,9.50
2008,10,01,02,26,9.50
2008,10,01,02,27,9.50
2008,10,01,02,28,9.50
2008,10,01,02,29,9.50
2008,10,01,02,30,9.60
2008,10,01,02,31,9.60
2008,10,01,02,32,9.60
2008,10,01,02,33,9.70
2008,10,01,02,34,9.70
2008,10,01,02,35,9.60
2008,10,01,02,36,9.60
2008,10,01,02,37,9.60
2008,10,01,02,38,9.50
2008,10,01,02,39,9.50
2008,10,01,02,40,9.50
2008,10,01,02,41,9.40
2008,10,01,02,42,9.40
2008,10,01,02,43,9.40
2008,10,01,02,44,9.40
2008,10,01,02,45,9.40
2008,10,01,02,46,9.40
2008,10,01,02,47,9.40
2008,10,01,02,48,9.30
2008,10,01,02,49,9.30
2008,10,01,02,50,9.30
2008,10,01,02,51,9.20
2008,10,01,02,52,9.20
2008,10,01,02,53,9.20
2008,10,01,02,54,9.20
2008,10,01,02,55,9.20
2008,10,01,02,56,9.10
2008,10,01,02,57,9.10
2008,10,01,02,58,9.10
2008,10,01,02,59,9.10
2008,10,01,03,00,9.10
2008,10,01,03,01,9.10
2008,10,01,03,02,9.10
2008,10,01,03,03,9.10
2008,10,01,03,04,9.10
2008,10,01,03,05,9.10
2008,10,01,03,06,9.10
2008,10,01,03,07,9.20
2008,10,01,03,08,9.10
2008,10,01,03,09,9.10
2008,10,01,03,10,9.10
2008,10,01,03,11,9.10
2008,10,01,03,12,9.10
2008,10,01,03,13,9.10
2008,10,01,03,14,9.10
2008,10,01,03,15,9.10
2008,10,01,03,16,9.00
2008,10,01,03,17,9.00
2008,10,01,03,18,9.00
2008,10,01,03,19,9.00
2008,10,01,03,20,9.00
2008,10,01,03,21,8.90
2008,10,01,03,22,8.90
2008,10,01,03,23,8.90
2008,10,01,03,24,9.00
2008,10,01,03,25,8.90
2008,10,01,03,26,9.00
2008,10,01,03,27,8.90
2008,10,01,03,28,8.90
2008,10,01,03,29,8.90
2008,10,01,03,30,8.90
2008,10,01,03,31,8.80
2008,10,01,03,32,8.80
2008,10,01,03,33,8.80
2008,10,01,03,34,8.70
2008,10,01,03,35,8.70
2008,10,01,03,36,8.70
2008,10,01,03,37,8.60
2008,10,01,03,38,8.60
2008,10,01,03,39,8.60
2008,10,01,03,40,8.50
2008,10,01,03,41,8.50
2008,10,01,03,42,8.50
2008,10,01,03,43,8.50
2008,10,01,03,44,8.50
2008,10,01,03,45,8.50
2008,10,01,03,46,8.40
2008,10,01,03,47,8.40
2008,10,01,03,48,8.40
2008,10,01,03,49,8.40
2008,10,01,03,50,8.40
2008,10,01,03,51,8.40
2008,10,01,03,52,8.40
2008,10,01,03,53,8.40
2008,10,01,03,54,8.40
2008,10,01,03,55,8.40
2008,10,01,03,56,8.40
2008,10,01,03,57,8.40
2008,10,01,03,58,8.40
2008,10,01,03,59,8.40
2008,10,01,04,00,8.50
2008,10,01,04,01,8.50
2008,10,01,04,02,8.40
2008,10,01,04,03,8.40
2008,10,01,04,04,8.40
2008,10,01,04,05,8.40
2008,10,01,04,06,8.50
2008,10,01,04,07,8.50
2008,10,01,04,08,8.50
2008,10,01,04,09,8.50
2008,10,01,04,10,8.50
2008,10,01,04,11,8.50
2008,10,01,04,12,8.50
2008,10,01,04,13,8.50
2008,10,01,04,14,8.50
2008,10,01,04,15,8.50
2008,10,01,04,16,8.40
2008,10,01,04,17,8.40
2008,10,01,04,18,8.40
2008,10,01,04,19,8.40
2008,10,01,04,20,8.40
2008,10,01,04,21,8.30
2008,10,01,04,22,8.30
2008,10,01,04,23,8.30
2008,10,01,04,24,8.30
2008,10,01,04,25,8.30
2008,10,01,04,26,8.30
2008,10,01,04,27,8.30
2008,10,01,04,28,8.20
2008,10,01,04,29,8.30
2008,10,01,04,30,8.30
2008,10,01,04,31,8.30
2008,10,01,04,32,8.30
2008,10,01,04,33,8.30
2008,10,01,04,34,8.30
2008,10,01,04,35,8.40
2008,10,01,04,36,8.40
2008,10,01,04,37,8.40
2008,10,01,04,38,8.40
2008,10,01,04,39,8.40
2008,10,01,04,40,8.40
2008,10,01,04,41,8.40
2008,10,01,04,42,8.40
2008,10,01,04,43,8.50
2008,10,01,04,44,8.50
2008,10,01,04,45,8.60
2008,10,01,04,46,8.50
2008,10,01,04,47,8.50
2008,10,01,04,48,8.40
2008,10,01,04,49,8.40
2008,10,01,04,50,8.40
2008,10,01,04,51,8.40
2008,10,01,04,52,8.40
2008,10,01,04,53,8.30
2008,10,01,04,54,8.30
2008,10,01,04,55,8.30
2008,10,01,04,56,8.30
2008,10,01,04,57,8.20
2008,10,01,04,58,8.20
2008,10,01,04,59,8.10
2008,10,01,05,00,8.10
2008,10,01,05,01,8.00
2008,10,01,05,02,8.00
2008,10,01,05,03,8.00
2008,10,01,05,04,7.90
2008,10,01,05,05,7.90
2008,10,01,05,06,7.90
2008,10,01,05,07,7.90
2008,10,01,05,08,7.90
2008,10,01,05,09,7.90
2008,10,01,05,10,7.90
2008,10,01,05,11,7.90
2008,10,01,05,12,7.90
2008,10,01,05,13,7.90
2008,10,01,05,14,7.90
2008,10,01,05,15,7.90
2008,10,01,05,16,7.90
2008,10,01,05,17,7.80
2008,10,01,05,18,7.80
2008,10,01,05,19,7.80
2008,10,01,05,20,7.80
2008,10,01,05,21,7.80
2008,10,01,05,22,7.80
2008,10,01,05,23,7.80
2008,10,01,05,24,7.80
2008,10,01,05,25,7.80
2008,10,01,05,26,7.80
2008,10,01,05,27,7.90
2008,10,01,05,28,7.90
2008,10,01,05,29,7.90
2008,10,01,05,30,8.00
2008,10,01,05,31,8.00
2008,10,01,05,32,8.20
2008,10,01,05,33,8.30
2008,10,01,05,34,8.50
2008,10,01,05,35,8.60
2008,10,01,05,36,8.60
2008,10,01,05,37,8.70
2008,10,01,05,38,8.70
2008,10,01,05,39,8.70
2008,10,01,05,40,8.80
2008,10,01,05,41,8.90
2008,10,01,05,42,8.90
2008,10,01,05,43,8.90
2008,10,01,05,44,8.80
2008,10,01,05,45,8.80
2008,10,01,05,46,8.70
2008,10,01,05,47,8.70
2008,10,01,05,48,8.60
2008,10,01,05,49,8.50
2008,10,01,05,50,8.40
2008,10,01,05,51,8.30
2008,10,01,05,52,8.10
2008,10,01,05,53,8.00
2008,10,01,05,54,7.90
2008,10,01,05,55,7.80
2008,10,01,05,56,7.70
2008,10,01,05,57,7.70
2008,10,01,05,58,7.60
2008,10,01,05,59,7.60
2008,10,01,06,00,7.50
2008,10,01,06,01,7.40
2008,10,01,06,02,7.40
2008,10,01,06,03,7.40
2008,10,01,06,04,7.40
2008,10,01,06,05,7.40
2008,10,01,06,06,7.40
2008,10,01,06,07,7.40
2008,10,01,06,08,7.40
2008,10,01,06,09,7.30
2008,10,01,06,10,7.30
2008,10,01,06,11,7.30
2008,10,01,06,12,7.30
2008,10,01,06,13,7.30
2008,10,01,06,14,7.30
2008,10,01,06,15,7.30
2008,10,01,06,16,7.30
2008,10,01,06,17,7.30
2008,10,01,06,18,7.30
2008,10,01,06,19,7.40
2008,10,01,06,20,7.40
2008,10,01,06,21,7.40
2008,10,01,06,22,7.50
2008,10,01,06,23,7.50
2008,10,01,06,24,7.50
2008,10,01,06,25,7.50
2008,10,01,06,26,7.60
2008,10,01,06,27,7.60
2008,10,01,06,28,7.60
2008,10,01,06,29,7.60
2008,10,01,06,30,7.60
2008,10,01,06,31,7.70
2008,10,01,06,32,7.70
2008,10,01,06,33,7.70
2008,10,01,06,34,7.80
2008,10,01,06,35,7.80
2008,10,01,06,36,7.80
2008,10,01,06,37,7.90
2008,10,01,06,38,7.90
2008,10,01,06,39,7.90
2008,10,01,06,40,7.90
2008,10,01,06,41,7.90
2008,10,01,06,42,7.90
2008,10,01,06,43,7.80
2008,10,01,06,44,7.80
2008,10,01,06,45,7.80
2008,10,01,06,46,7.80
2008,10,01,06,47,7.90
2008,10,01,06,48,8.00
2008,10,01,06,49,8.00
2008,10,01,06,50,8.00
2008,10,01,06,51,8.00
2008,10,01,06,52,8.00
2008,10,01,06,53,8.00
2008,10,01,06,54,8.00
2008,10,01,06,55,8.00
2008,10,01,06,56,8.00
2008,10,01,06,57,8.00
2008,10,01,06,58,8.00
2008,10,01,06,59,8.00
2008,10,01,07,00,8.00
2008,10,01,07,01,7.90
2008,10,01,07,02,7.90
2008,10,01,07,03,7.90
2008,10,01,07,04,7.80
2008,10,01,07,05,7.80
2008,10,01,07,06,7.70
2008,10,01,07,07,7.80
2008,10,01,07,08,7.80
2008,10,01,07,09,7.80
2008,10,01,07,10,7.80
2008,10,01,07,11,7.80
2008,10,01,07,12,7.70
2008,10,01,07,13,7.70
2008,10,01,07,14,7.70
2008,10,01,07,15,7.70
2008,10,01,07,16,7.80
2008,10,01,07,17,7.80
2008,10,01,07,18,7.80
2008,10,01,07,19,7.80
2008,10,01,07,20,7.80
2008,10,01,07,21,7.80
2008,10,01,07,22,7.90
2008,10,01,07,23,8.00
2008,10,01,07,24,8.20
2008,10,01,07,25,8.30
2008,10,01,07,26,8.40
2008,10,01,07,27,8.50
2008,10,01,07,28,8.50
2008,10,01,07,29,8.50
2008,10,01,07,30,8.40
2008,10,01,07,31,8.40
2008,10,01,07,32,8.40
2008,10,01,07,33,8.40
2008,10,01,07,34,8.40
2008,10,01,07,35,8.40
2008,10,01,07,36,8.40
2008,10,01,07,37,8.40
2008,10,01,07,38,8.50
2008,10,01,07,39,8.50
2008,10,01,07,40,8.60
2008,10,01,07,41,8.60
2008,10,01,07,42,8.70
2008,10,01,07,43,8.70
2008,10,01,07,44,8.80
2008,10,01,07,45,8.80
2008,10,01,07,46,8.80
2008,10,01,07,47,8.90
2008,10,01,07,48,9.00
2008,10,01,07,49,9.00
2008,10,01,07,50,9.10
2008,10,01,07,51,9.10
2008,10,01,07,52,9.10
2008,10,01,07,53,9.10
2008,10,01,07,54,9.20
2008,10,01,07,55,9.20
2008,10,01,07,56,9.20
2008,10,01,07,57,9.20
2008,10,01,07,58,9.30
2008,10,01,07,59,9.30
2008,10,01,08,00,9.30
2008,10,01,08,01,9.40
2008,10,01,08,02,9.40
2008,10,01,08,03,9.40
2008,10,01,08,04,9.50
2008,10,01,08,05,9.50
2008,10,01,08,06,9.50
2008,10,01,08,07,9.60
2008,10,01,08,08,9.60
2008,10,01,08,09,9.60
2008,10,01,08,10,9.70
2008,10,01,08,11,9.70
2008,10,01,08,12,9.70
2008,10,01,08,13,9.80
2008,10,01,08,14,9.80
2008,10,01,08,15,9.80
2008,10,01,08,16,9.80
2008,10,01,08,17,9.80
2008,10,01,08,18,9.80
2008,10,01,08,19,9.90
2008,10,01,08,20,9.90
2008,10,01,08,21,9.90
2008,10,01,08,22,9.90
2008,10,01,08,23,10.00
2008,10,01,08,24,10.00
2008,10,01,08,25,10.10
2008,10,01,08,26,10.10
2008,10,01,08,27,10.10
2008,10,01,08,28,10.20
2008,10,01,08,29,10.20
2008,10,01,08,30,10.20
2008,10,01,08,31,10.30
2008,10,01,08,32,10.30
2008,10,01,08,33,10.30
2008,10,01,08,34,10.30
2008,10,01,08,35,10.40
2008,10,01,08,36,10.40
2008,10,01,08,37,10.40
2008,10,01,08,38,10.40
2008,10,01,08,39,10.40
2008,10,01,08,40,10.50
2008,10,01,08,41,10.50
2008,10,01,08,42,10.60
2008,10,01,08,43,10.60
2008,10,01,08,44,10.60
2008,10,01,08,45,10.70
2008,10,01,08,46,10.70
2008,10,01,08,47,10.70
2008,10,01,08,48,10.70
2008,10,01,08,49,10.70
2008,10,01,08,50,10.80
2008,10,01,08,51,10.80
2008,10,01,08,52,10.80
2008,10,01,08,53,10.80
2008,10,01,08,54,10.80
2008,10,01,08,55,10.90
2008,10,01,08,56,10.90
2008,10,01,08,57,11.00
2008,10,01,08,58,11.00
2008,10,01,08,59,11.10
2008,10,01,09,00,11.10
2008,10,01,09,01,11.10
2008,10,01,09,02,11.20
2008,10,01,09,03,11.20
2008,10,01,09,04,11.20
2008,10,01,09,05,11.30
2008,10,01,09,06,11.30
2008,10,01,09,07,11.30
2008,10,01,09,08,11.30
2008,10,01,09,09,11.30
2008,10,01,09,10,11.40
2008,10,01,09,11,11.40
2008,10,01,09,12,11.50
2008,10,01,09,13,11.50
2008,10,01,09,14,11.60
2008,10,01,09,15,11.60
2008,10,01,09,16,11.60
2008,10,01,09,17,11.70
2008,10,01,09,18,11.70
2008,10,01,09,19,11.80
2008,10,01,09,20,11.90
2008,10,01,09,21,11.90
2008,10,01,09,22,12.00
2008,10,01,09,23,12.00
2008,10,01,09,24,12.10
2008,10,01,09,25,12.20
2008,10,01,09,26,12.20
2008,10,01,09,27,12.30
2008,10,01,09,28,12.40
2008,10,01,09,29,12.50
2008,10,01,09,30,12.60
2008,10,01,09,31,12.70
2008,10,01,09,32,12.80
2008,10,01,09,33,12.80
2008,10,01,09,34,12.90
2008,10,01,09,35,13.00
2008,10,01,09,36,13.20
2008,10,01,09,37,13.30
2008,10,01,09,38,13.40
2008,10,01,09,39,13.50
2008,10,01,09,40,13.70
2008,10,01,09,41,13.80
2008,10,01,09,42,14.00
2008,10,01,09,43,14.00
2008,10,01,09,44,14.10
2008,10,01,09,45,14.20
2008,10,01,09,46,14.20
2008,10,01,09,47,14.20
2008,10,01,09,48,14.30
2008,10,01,09,49,14.30
2008,10,01,09,50,14.40
2008,10,01,09,51,14.50
2008,10,01,09,52,14.60
2008,10,01,09,53,14.70
2008,10,01,09,54,14.70
2008,10,01,09,55,14.90
2008,10,01,09,56,15.00
2008,10,01,09,57,15.00
2008,10,01,09,58,15.00
2008,10,01,09,59,15.00
2008,10,01,10,00,14.80
2008,10,01,10,01,14.60
2008,10,01,10,02,14.40
2008,10,01,10,03,14.30
2008,10,01,10,04,14.10
2008,10,01,10,05,14.00
2008,10,01,10,06,13.80
2008,10,01,10,07,13.70
2008,10,01,10,08,13.70
2008,10,01,10,09,13.70
2008,10,01,10,10,13.70
2008,10,01,10,11,13.70
2008,10,01,10,12,13.70
2008,10,01,10,13,13.70
2008,10,01,10,14,13.80
2008,10,01,10,15,13.80
2008,10,01,10,16,13.80
2008,10,01,10,17,13.80
2008,10,01,10,18,13.90
2008,10,01,10,19,13.90
2008,10,01,10,20,14.00
2008,10,01,10,21,14.10
2008,10,01,10,22,14.20
2008,10,01,10,23,14.20
2008,10,01,10,24,14.20
2008,10,01,10,25,14.30
2008,10,01,10,26,14.30
2008,10,01,10,27,14.40
2008,10,01,10,28,14.40
2008,10,01,10,29,14.50
2008,10,01,10,30,14.50
2008,10,01,10,31,14.60
2008,10,01,10,32,14.70
2008,10,01,10,33,14.80
2008,10,01,10,34,15.00
2008,10,01,10,35,15.00
2008,10,01,10,36,15.00
2008,10,01,10,37,15.20
2008,10,01,10,38,15.30
2008,10,01,10,39,15.40
2008,10,01,10,40,15.50
2008,10,01,10,41,15.60
2008,10,01,10,42,15.70
2008,10,01,10,43,15.80
2008,10,01,10,44,16.00
2008,10,01,10,45,16.00
2008,10,01,10,46,16.10
2008,10,01,10,47,16.20
2008,10,01,10,48,16.20
2008,10,01,10,49,16.20
2008,10,01,10,50,16.20
2008,10,01,10,51,16.20
2008,10,01,10,52,16.30
2008,10,01,10,53,16.30
2008,10,01,10,54,16.40
2008,10,01,10,55,16.50
2008,10,01,10,56,16.50
2008,10,01,10,57,16.60
2008,10,01,10,58,16.70
2008,10,01,10,59,16.80
2008,10,01,11,00,16.90
2008,10,01,11,01,17.10
2008,10,01,11,02,17.30
2008,10,01,11,03,17.40
2008,10,01,11,04,17.60
2008,10,01,11,05,17.70
2008,10,01,11,06,17.80
2008,10,01,11,07,17.80
2008,10,01,11,08,17.80
2008,10,01,11,09,17.80
2008,10,01,11,10,17.80
2008,10,01,11,11,17.80
2008,10,01,11,12,17.90
2008,10,01,11,13,17.90
2008,10,01,11,14,18.00
2008,10,01,11,15,18.10
2008,10,01,11,16,18.20
2008,10,01,11,17,18.20
2008,10,01,11,18,18.30
2008,10,01,11,19,18.40
2008,10,01,11,20,18.50
2008,10,01,11,21,18.60
2008,10,01,11,22,18.70
2008,10,01,11,23,18.80
2008,10,01,11,24,18.80
2008,10,01,11,25,18.90
2008,10,01,11,26,19.00
2008,10,01,11,27,19.10
2008,10,01,11,28,19.30
2008,10,01,11,29,19.30
2008,10,01,11,30,19.40
2008,10,01,11,31,19.30
2008,10,01,11,32,19.30
2008,10,01,11,33,19.30
2008,10,01,11,34,19.20
2008,10,01,11,35,19.10
2008,10,01,11,36,19.00
2008,10,01,11,37,18.90
2008,10,01,11,38,18.70
2008,10,01,11,39,18.60
2008,10,01,11,40,18.50
2008,10,01,11,41,18.50
2008,10,01,11,42,18.40
2008,10,01,11,43,18.30
2008,10,01,11,44,18.30
2008,10,01,11,45,18.20
2008,10,01,11,46,18.10
2008,10,01,11,47,18.10
2008,10,01,11,48,18.10
2008,10,01,11,49,18.10
2008,10,01,11,50,18.10
2008,10,01,11,51,18.10
2008,10,01,11,52,18.10
2008,10,01,11,53,18.10
2008,10,01,11,54,18.20
2008,10,01,11,55,18.30
2008,10,01,11,56,18.30
2008,10,01,11,57,18.30
2008,10,01,11,58,18.30
2008,10,01,11,59,18.20
2008,10,01,12,00,18.20
2008,10,01,12,01,18.20
2008,10,01,12,02,18.10
2008,10,01,12,03,18.00
2008,10,01,12,04,17.90
2008,10,01,12,05,17.80
2008,10,01,12,06,17.70
2008,10,01,12,07,17.60
2008,10,01,12,08,17.60
2008,10,01,12,09,17.60
2008,10,01,12,10,17.60
2008,10,01,12,11,17.60
2008,10,01,12,12,17.60
2008,10,01,12,13,17.60
2008,10,01,12,14,17.70
2008,10,01,12,15,17.80
2008,10,01,12,16,17.80
2008,10,01,12,17,17.80
2008,10,01,12,18,17.90
2008,10,01,12,19,17.90
2008,10,01,12,20,17.90
2008,10,01,12,21,17.90
2008,10,01,12,22,17.90
2008,10,01,12,23,17.80
2008,10,01,12,24,17.70
2008,10,01,12,25,17.60
2008,10,01,12,26,17.60
2008,10,01,12,27,17.60
2008,10,01,12,28,17.60
2008,10,01,12,29,17.70
2008,10,01,12,30,17.60
2008,10,01,12,31,17.50
2008,10,01,12,32,17.40
2008,10,01,12,33,17.40
2008,10,01,12,34,17.40
2008,10,01,12,35,17.50
2008,10,01,12,36,17.50
2008,10,01,12,37,17.60
2008,10,01,12,38,17.60
2008,10,01,12,39,17.60
2008,10,01,12,40,17.60
2008,10,01,12,41,17.50
2008,10,01,12,42,17.40
2008,10,01,12,43,17.40
2008,10,01,12,44,17.40
2008,10,01,12,45,17.40
2008,10,01,12,46,17.40
2008,10,01,12,47,17.50
2008,10,01,12,48,17.60
2008,10,01,12,49,17.60
2008,10,01,12,50,17.60
2008,10,01,12,51,17.50
2008,10,01,12,52,17.40
2008,10,01,12,53,17.30
2008,10,01,12,54,17.30
2008,10,01,12,55,17.30
2008,10,01,12,56,17.30
2008,10,01,12,57,17.20
2008,10,01,12,58,17.20
2008,10,01,12,59,17.20
2008,10,01,13,00,17.30
2008,10,01,13,01,17.30
2008,10,01,13,02,17.30
2008,10,01,13,03,17.30
2008,10,01,13,04,17.30
2008,10,01,13,05,17.20
2008,10,01,13,06,17.20
2008,10,01,13,07,17.20
2008,10,01,13,08,17.30
2008,10,01,13,09,17.30
2008,10,01,13,10,17.30
2008,10,01,13,11,17.40
2008,10,01,13,12,17.40
2008,10,01,13,13,17.40
2008,10,01,13,14,17.40
2008,10,01,13,15,17.40
2008,10,01,13,16,17.40
2008,10,01,13,17,17.40
2008,10,01,13,18,17.30
2008,10,01,13,19,17.30
2008,10,01,13,20,17.30
2008,10,01,13,21,17.30
2008,10,01,13,22,17.30
2008,10,01,13,23,17.30
2008,10,01,13,24,17.30
2008,10,01,13,25,17.30
2008,10,01,13,26,17.30
2008,10,01,13,27,17.30
2008,10,01,13,28,17.30
2008,10,01,13,29,17.30
2008,10,01,13,30,17.30
2008,10,01,13,31,17.30
2008,10,01,13,32,17.30
2008,10,01,13,33,17.30
2008,10,01,13,34,17.30
2008,10,01,13,35,17.30
2008,10,01,13,36,17.20
2008,10,01,13,37,17.20
2008,10,01,13,38,17.20
2008,10,01,13,39,17.20
2008,10,01,13,40,17.20
2008,10,01,13,41,17.20
2008,10,01,13,42,17.10
2008,10,01,13,43,17.10
2008,10,01,13,44,17.10
2008,10,01,13,45,17.10
2008,10,01,13,46,17.10
2008,10,01,13,47,17.00
2008,10,01,13,48,17.00
2008,10,01,13,49,17.00
2008,10,01,13,50,17.00
2008,10,01,13,51,17.00
2008,10,01,13,52,17.00
2008,10,01,13,53,17.00
2008,10,01,13,54,17.00
2008,10,01,13,55,17.10
2008,10,01,13,56,17.20
2008,10,01,13,57,17.20
2008,10,01,13,58,17.30
2008,10,01,13,59,17.40
2008,10,01,14,00,17.50
2008,10,01,14,01,17.60
2008,10,01,14,02,17.70
2008,10,01,14,03,17.80
2008,10,01,14,04,17.90
2008,10,01,14,05,18.00
2008,10,01,14,06,18.00
2008,10,01,14,07,18.10
2008,10,01,14,08,18.10
2008,10,01,14,09,18.10
2008,10,01,14,10,18.10
2008,10,01,14,11,18.00
2008,10,01,14,12,18.10
2008,10,01,14,13,18.10
2008,10,01,14,14,18.20
2008,10,01,14,15,18.20
2008,10,01,14,16,18.30
2008,10,01,14,17,18.40
2008,10,01,14,18,18.50
2008,10,01,14,19,18.60
2008,10,01,14,20,18.70
2008,10,01,14,21,18.70
2008,10,01,14,22,18.80
2008,10,01,14,23,18.80
2008,10,01,14,24,18.90
2008,10,01,14,25,18.90
2008,10,01,14,26,18.90
2008,10,01,14,27,19.00
2008,10,01,14,28,18.90
2008,10,01,14,29,18.90
2008,10,01,14,30,18.90
2008,10,01,14,31,18.90
2008,10,01,14,32,18.80
2008,10,01,14,33,18.60
2008,10,01,14,34,18.60
2008,10,01,14,35,18.50
2008,10,01,14,36,18.40
2008,10,01,14,37,18.40
2008,10,01,14,38,18.40
2008,10,01,14,39,18.40
2008,10,01,14,40,18.40
2008,10,01,14,41,18.50
2008,10,01,14,42,18.50
2008,10,01,14,43,18.60
2008,10,01,14,44,18.70
2008,10,01,14,45,18.70
2008,10,01,14,46,18.70
2008,10,01,14,47,18.70
2008,10,01,14,48,18.70
2008,10,01,14,49,18.60
2008,10,01,14,50,18.70
2008,10,01,14,51,18.70
2008,10,01,14,52,18.70
2008,10,01,14,53,18.70
2008,10,01,14,54,18.70
2008,10,01,14,55,18.70
2008,10,01,14,56,18.70
2008,10,01,14,57,18.70
2008,10,01,14,58,18.60
2008,10,01,14,59,18.60
2008,10,01,15,00,18.60
2008,10,01,15,01,18.70
2008,10,01,15,02,18.70
2008,10,01,15,03,18.70
2008,10,01,15,04,18.70
2008,10,01,15,05,18.60
2008,10,01,15,06,18.60
2008,10,01,15,07,18.50
2008,10,01,15,08,18.50
2008,10,01,15,09,18.40
2008,10,01,15,10,18.40
2008,10,01,15,11,18.30
2008,10,01,15,12,18.30
2008,10,01,15,13,18.30
2008,10,01,15,14,18.10
2008,10,01,15,15,18.00
2008,10,01,15,16,17.90
2008,10,01,15,17,17.70
2008,10,01,15,18,17.50
2008,10,01,15,19,17.40
2008,10,01,15,20,17.30
2008,10,01,15,21,17.20
2008,10,01,15,22,17.10
2008,10,01,15,23,17.00
2008,10,01,15,24,16.90
2008,10,01,15,25,16.90
2008,10,01,15,26,16.80
2008,10,01,15,27,16.70
2008,10,01,15,28,16.70
2008,10,01,15,29,16.70
2008,10,01,15,30,16.70
2008,10,01,15,31,16.70
2008,10,01,15,32,16.80
2008,10,01,15,33,16.80
2008,10,01,15,34,16.80
2008,10,01,15,35,16.80
2008,10,01,15,36,16.80
2008,10,01,15,37,16.80
2008,10,01,15,38,16.80
2008,10,01,15,39,16.80
2008,10,01,15,40,16.80
2008,10,01,15,41,16.80
2008,10,01,15,42,16.80
2008,10,01,15,43,16.80
2008,10,01,15,44,16.70
2008,10,01,15,45,16.60
2008,10,01,15,46,16.50
2008,10,01,15,47,16.50
2008,10,01,15,48,16.40
2008,10,01,15,49,16.30
2008,10,01,15,50,16.20
2008,10,01,15,51,16.20
2008,10,01,15,52,16.10
2008,10,01,15,53,16.20
2008,10,01,15,54,16.20
2008,10,01,15,55,16.20
2008,10,01,15,56,16.30
2008,10,01,15,57,16.30
2008,10,01,15,58,16.30
2008,10,01,15,59,16.30
2008,10,01,16,00,16.30
2008,10,01,16,01,16.30
2008,10,01,16,02,16.30
2008,10,01,16,03,16.20
2008,10,01,16,04,16.20
2008,10,01,16,05,16.10
2008,10,01,16,06,16.10
2008,10,01,16,07,16.10
2008,10,01,16,08,16.00
2008,10,01,16,09,16.10
2008,10,01,16,10,16.10
2008,10,01,16,11,16.20
2008,10,01,16,12,16.20
2008,10,01,16,13,16.20
2008,10,01,16,14,16.30
2008,10,01,16,15,16.30
2008,10,01,16,16,16.30
2008,10,01,16,17,16.30
2008,10,01,16,18,16.30
2008,10,01,16,19,16.30
2008,10,01,16,20,16.30
2008,10,01,16,21,16.30
2008,10,01,16,22,16.30
2008,10,01,16,23,16.30
2008,10,01,16,24,16.30
2008,10,01,16,25,16.30
2008,10,01,16,26,16.30
2008,10,01,16,27,16.30
2008,10,01,16,28,16.30
2008,10,01,16,29,16.30
2008,10,01,16,30,16.40
2008,10,01,16,31,16.40
2008,10,01,16,32,16.50
2008,10,01,16,33,16.60
2008,10,01,16,34,16.60
2008,10,01,16,35,16.60
2008,10,01,16,36,16.60
2008,10,01,16,37,16.60
2008,10,01,16,38,16.60
2008,10,01,16,39,16.60
2008,10,01,16,40,16.60
2008,10,01,16,41,16.60
2008,10,01,16,42,16.60
2008,10,01,16,43,16.60
2008,10,01,16,44,16.70
2008,10,01,16,45,16.70
2008,10,01,16,46,16.70
2008,10,01,16,47,16.70
2008,10,01,16,48,16.70
2008,10,01,16,49,16.70
2008,10,01,16,50,16.70
2008,10,01,16,51,16.60
2008,10,01,16,52,16.70
2008,10,01,16,53,16.60
2008,10,01,16,54,16.60
2008,10,01,16,55,16.60
2008,10,01,16,56,16.60
2008,10,01,16,57,16.60
2008,10,01,16,58,16.60
2008,10,01,16,59,16.60
2008,10,01,17,00,16.60
2008,10,01,17,01,16.60
2008,10,01,17,02,16.60
2008,10,01,17,03,16.60
2008,10,01,17,04,16.60
2008,10,01,17,05,16.70
2008,10,01,17,06,16.70
2008,10,01,17,07,16.70
2008,10,01,17,08,16.80
2008,10,01,17,09,16.80
2008,10,01,17,10,16.80
2008,10,01,17,11,16.80
2008,10,01,17,12,16.80
2008,10,01,17,13,16.90
2008,10,01,17,14,16.90
2008,10,01,17,15,16.90
2008,10,01,17,16,17.00
2008,10,01,17,17,17.00
2008,10,01,17,18,17.00
2008,10,01,17,19,17.00
2008,10,01,17,20,17.00
2008,10,01,17,21,17.10
2008,10,01,17,22,17.00
2008,10,01,17,23,17.00
2008,10,01,17,24,17.00
2008,10,01,17,25,16.90
2008,10,01,17,26,16.90
2008,10,01,17,27,16.90
2008,10,01,17,28,16.80
2008,10,01,17,29,16.80
2008,10,01,17,30,16.80
2008,10,01,17,31,16.80
2008,10,01,17,32,16.80
2008,10,01,17,33,16.80
2008,10,01,17,34,16.80
2008,10,01,17,35,16.80
2008,10,01,17,36,16.70